Regional Weather Roundup
Issued by NWS Portland, ME

Current Version | Previous Version | Text Only | Print | Product List | Glossary Off
Versions: 1 2 3 4 5 6 7 8 9 10 11 12 13 14 15 16 17 18 19 20 21 22 23 24 25 26 27 28 29 30 31 32 33 34 35 36 37 38 39 40 41 42 43 44 45 46 47 48 49 50
000 ASUS41 KGYX 192305 RWRGYX WEATHER ROUNDUP FOR MAINE AND NEW HAMPSHIRE NATIONAL WEATHER SERVICE GRAY ME 700 PM EDT TUE SEP 19 2017 MEZ002-005-006-010-012-015-018-020-021-024-026-027-029-200000- MAINE CITY SKY/WX TMP DP RH WIND PRES REMARKS PORTLAND CLOUDY 65 64 97 NE8 30.08S FOG SANFORD CLOUDY 65 64 97 NE10 30.07F FOG BAR HARBOR FOG 64 64 100 CALM 30.12S VSB 3/4 WISCASSET CLOUDY 67 65 93 E6 30.10S ROCKLAND CLOUDY 64 64 100 NE9 30.09F FOG FRYEBURG CLOUDY 68 65 90 N5 30.10S LEWISTONAUBURN LGT RAIN 66 65 96 NE6 30.09F FOG AUGUSTA CLOUDY 66 65 96 NE5 30.11S FOG WATERVILLE RAIN 66 65 96 NE5 30.09S FOG BANGOR CLOUDY 68 66 93 E6 30.12S GREENVILLE N/A 63 62 97 SE5 30.13R MILLINOCKET CLOUDY 67 64 90 SE3 30.13S HOULTON CLEAR 64 64 100 CALM 30.12R PRESQUE ISLE CLEAR 65 61 87 VRB5 30.13R FRENCHVILLE CLEAR 65 58 78 S10 30.11R CARIBOU CLEAR 67 59 75 S5 30.11R $$ NHZ002-005-008-009-011-012-014-200000- NEW HAMPSHIRE CITY SKY/WX TMP DP RH WIND PRES REMARKS PORTSMOUTH FOG 63 63 100 NE8 30.04F VSB 3/8 ROCHESTER CLOUDY 65 63 93 NE6 30.06S FOG NASHUA CLOUDY 67 65 93 NE5 30.04F MANCHESTER CLOUDY 67 65 93 NE7 30.03S CONCORD CLOUDY 69 64 84 NE7 30.05F LACONIA CLOUDY 68 64 87 E13 30.08S PLYMOUTH CLOUDY 70 62 76 E3 30.07S BERLIN PTCLDY 66 59 78 CALM 30.10R WHITEFIELD CLEAR 69 58 67 SE3 30.08S JAFFREY CLOUDY 67 65 93 VRB3 30.06F KEENE CLOUDY 70 64 81 VRB7 30.04S LEBANON CLOUDY 68 64 87 CALM 30.05S MT WASHINGTON DRZL/FOG 50 50 100 SE13 N/A VSB 1/16 $$ VTZ005-007-008-200000- VERMONT CITY SKY/WX TMP DP RH WIND PRES REMARKS ST JOHNSBURY N/A 71 63 75 MISG 30.05R MONTPELIER CLEAR 64 62 93 S3 30.11F BURLINGTON PTCLDY 74 60 61 S6 30.03S $$ MAZ007-012-024-CTZ003-RIZ002-NYZ038-NYZ072-200000- SOUTHERN NEW ENGLAND AND NY CITY SKY/WX TMP DP RH WIND PRES REMARKS BOSTON CLOUDY 64 63 96 N16G22 30.00S FOG WORCESTER FOG 63 62 97 NE13G20 30.02F VSB 1/8 NANTUCKET LGT RAIN 67 67 100 NE17G28 29.86F PROVIDENCE CLOUDY 66 66 100 N16 29.95F HARTFORD CLOUDY 71 64 78 NE15 29.97S ALBANY CLOUDY 74 59 59 E6 30.01R NEW YORK CITY LGT RAIN 73 66 78 NE21G28 29.88S $$ ANZ081-ANZ082-ANZ150-NHZ014-MEZ023>029-200000- COASTAL MARINE OBSERVATIONS STATION/POSITION TIME TEMP WIND PRES WAVE AIR SEA DIR/SP/G HT/PER (UTC) (F) (DEG/KT/KT) (MB) (FT/S) MOUNT DESERT ROC 2300 58 50/ 15/ 16 1018.9F MATINICUS ROCK 2200 57 60/ 17/ 17 1018.0S ISLE OF SHOALS 2200 60 20/ 19/ 20 1016.9F JEFFREYS LEDGE 2236 63 N/A 6/14 GEORGES BANK BUO 2150 75 65 1012.4 13/13 $$ .............KEY.............. WCI - WIND CHILL TC - TEMPERATURE IN CELSIUS VSB - VISIBILITY IN MILES HX - HEAT INDEX FAIR- INDICATES FEW OR NO CLOUDS BELOW 12,000 FT, WITH NO SIGNIFICANT WEATHER AND/OR OBSTRUCTIONS TO VISIBILITY.

USA.gov is the U.S. government's official web portal to all federal, state and local government web resources and services.